Powrót do katalogu

DELTA 1 DEB

AktywnySSO
NORAD 39097·DEBRIS·🇺🇸 United States

Wystrzelony Nov 6, 1973 z Vandenberg Space Force Base

Loading…

Następne Przeloty (najbliższe 24 godziny)

TLE

ŚwieżeSource: Space-Track

Epoka: Sep 14, 2026, 13:39 UTC

1 39097U 73086HK  26257.56931582 -.00000041  00000-0  42434-4 0  9990
2 39097 102.3805 285.2143 0031473  99.1388  53.3166 12.33956233616037

Śledź DELTA 1 DEB w czasie rzeczywistym z AllMySat

Download on the App Store